Regional Weather Roundup
Issued by NWS State College, PA

Home | Current Version | Previous Version | Graphics & Text | Print | Product List | Glossary Off
Versions: 1 2 3 4 5 6 7 8 9 10 11 12 13 14 15 16 17 18 19 20 21 22 23 24 25 26 27 28 29 30 31 32 33 34 35 36 37 38 39 40 41 42 43 44 45 46 47 48 49 50

000
ASUS41 KCTP 301003
RWRCTP

REGIONAL WEATHER ROUNDUP
NATIONAL WEATHER SERVICE STATE COLLEGE PA
600 AM EDT SAT AUG 30 2014

Note: "fair" indicates few or no clouds below 12,000 feet with no
significant weather and/or obstructions to visibility.

* = STATION THAT DOES NOT REPORT PRECIPITATION /E.G. RAIN...SNOW...ETC/
    THUNDER OR FOG.

PAZ002>004-007>009-013>016-020>023-029>032-301100-
WESTERN PENNSYLVANIA

CITY           SKY/WX    TMP DP  RH WIND       PRES   REMARKS
ERIE           CLEAR     67  55  65 S15       30.05S
MEADVILLE      CLEAR     63  55  75 CALM      30.11S
FRANKLIN*      CLEAR     57  54  88 E6        30.14S
NEW CASTLE     FAIR      57  56  97 CALM      30.11S
BEAVER COUNTY  NOT AVBL
BUTLER*        CLEAR     57  54  88 CALM      30.13F
PITTSBURGH INT MOCLDY    63  59  87 CALM      30.11R
PITTSBURGH     CLEAR     63  57  81 SE5       30.11R
INDIANA*       CLEAR     64  59  82 CALM      30.18S
LATROBE        CLEAR     61  61 100 CALM      30.14R
WASHINGTON CO* CLEAR     59  57  94 CALM      30.12R
$$

PAZ004>006-010>012-017>019-024>028-033>037-041-042-045-046-049>053-301100-
CENTRAL PENNSYLVANIA

CITY           SKY/WX    TMP DP  RH WIND       PRES   REMARKS
BRADFORD       CLEAR     55  52  89 SE5       30.17R
DUBOIS         CLEAR     58  55  90 SE6       30.16S
CLEARFIELD     CLEAR     52  51  97 N6        30.19R
JOHNSTOWN      CLEAR     60  56  86 S6        30.20R
ALTOONA        PTCLDY    60  56  86 S3        30.21R
STATE COLLEGE  CLEAR     55  54  94 CALM      30.20S
WILLIAMSPORT   MOCLDY    60  54  80 E5        30.20R
SELINSGROVE    CLOUDY    57  55  93 CALM      30.22R
FT INDIANTOWN  CLOUDY    58  58 100 CALM      30.24R
CAPITAL CITY   CLOUDY    62  58  86 E6        30.23R
HARRISBURG     MOCLDY    63  58  83 E3        30.22R
YORK           CLOUDY    62  60  93 SE3       30.23R
$$

PAZ038>040-043-044-047-048-054-055-060>062-067>071-301100-
EASTERN PENNSYLVANIA

CITY           SKY/WX    TMP DP  RH WIND       PRES   REMARKS
SCRANTON       PTCLDY    62  56  80 SW3       30.23S
MOUNT POCONO   CLEAR     53  51  93 SE6       30.27F
ALLENTOWN      CLEAR     55  52  89 NE3       30.25F
QUAKERTOWN*    SUNNY     54  50  87 CALM      30.26S
READING        CLEAR     59  56  89 CALM      30.23S
LANCASTER      PTCLDY    57  55  93 CALM      30.24R
COATESVILLE    SUNNY     55  55 100 CALM      30.25S
POTTSTOWN      CLEAR     56  54  93 NE3       30.26S
BLUE BELL      CLEAR     54  54 100 CALM      30.24S
DOYLESTOWN     CLEAR     54  54 100 CALM      30.25S
WILLOW GROVE   NOT AVBL
NORTH PHILA    CLEAR     59  54  83 E3        30.27S
PHILADELPHIA   PTCLDY    62  58  86 E5        30.25S
$$



USA.gov is the U.S. government's official web portal to all federal, state and local government web resources and services.